PEGASUS DEB, 39319

Orbit data source: Space-Track

PEGASUS DEB, 39319 is space debris in LEO originally from a launch on Thu, 19 May 1994 UTC launched from the Air Force Western Test Range (AFWTR). Debris objects in space refer to the collection of defunct objects orbiting the Earth. Examples of debris include non-operational satellites, rocket bodies, and fragments generated from explosions, collisions, or faulty payload assembly.

Loading next visibility...
Identifier
39319, 1994-029AFE
Orbit
LEO
Country
Flag of USUS
Related business
Manufacturer
Unknown
Mission
Spacecraft
Bus & Motor
Unknown
Mass
Unknown
Launch date (UTC)
1994-05-19 (32 years ago)
Launch vehicle
Unknown
Launch site
Air Force Western Test Range (AFWTR)
Object type
Payload
Rocket body
Debris
Shape & HBR
Unknown shape, 0.1 m
Radar Cross Section
Small (<0.1 m²)

Expand to show TLE details & history
Last TLE update: 2 days ago

TLE from 2 days ago
0 PEGASUS DEB
1 39319U 94029AFE 26205.77474388  .00001765  00000-0  24023-3 0  9995
2 39319  81.9435   3.2019 0180041 165.2038 195.4538 14.67532586283848
Epoch: 2026-07-24T18:35Z
TLE epoch observation values (Epoch: 2026-07-24T18:35:37.871Z)
Latitude
-0.00004°
Longitude
141.79755°
Altitude
794.431 km
Speed
7.391 km/s
True Right ascension
00h 12m 48s
True Declination
0° 00' 00"
Sunlit
Object was in full shadow at epoch
Visualization orbit readout
Latitude
Unknown
Longitude
Unknown
Altitude
Unknown
Speed
Unknown
Apparent Right ascension
Unknown
Apparent Declination
Unknown
Sunlit
N/A
Visualization observer readout
Local Sidereal Time
23:03:27
Azimuth
Unknown
Elevation
Unknown
Doppler factor
Unknown
Orbital elements
Apogee altitude
792.843 km
Perigee altitude
539.195 km
Semi-major axis
7,044.156 km
Eccentricity
0.018
Inclination
81.9435°
RAAN
3.2019°
Arg. of periapsis
165.2038°
True anomaly
194.91575°
Mean anomaly
195.4538°
Eccentric anomaly
195.18362°
Mean motion
3.67113 °/min
Orbital period
98.06 mins
BSTAR
0.00024023
Loading maneuver chart data...
Computing Atmospheric mass density...

Documentation

Showing up to 5 results
|